User: anonymous   Login
Location: ???? ??????? ????
(31.2176°N, 31.6797°E)
Time: 12:33:38
(UTC+00:00)
Language:

ARGOS - Orbit

View from above orbital plane
View from above orbital plane
View from above satellite
View from above satellite

Ground track
Ground track

The orbit data is extracted from the following two-line orbital elements,

1 25634U 99008A   21018.82121660 -.00000020  00000-0  10328-4 0  9995
2 25634  98.4369  53.7319 0010490  19.6867 340.4713 14.19386633134037
Epoch (UTC): 18 January 2021 19:42:33
Eccentricity: 0.0010490
inclination: 98.4369°
perigee height: 820 km
apogee height: 835 km
right ascension of ascending node: 53.7319°
argument of perigee: 19.6867°
revolutions per day: 14.19386633
mean anomaly at epoch: 340.4713°
orbit number at epoch: 13403

The dashed part of the orbit path shows where the satellite is in the earth's shadow,  

DLR